CAPE
2424 2286 2279 2282 2199 2080 1979 1892 1948 2086 2192 2189 2196 2082 1990 2084 2794 3192 3188 3013 2962 3167 3013 2939 2846 2933 3059 3009 3106 3261 3253 3229 3219 3081 3291 3351 3208 3133 3167 2954 2844 2608 2456 2195 1845 1516 1250 1029 772 573 298 308 234 190 423 1030 724 465 445 248 567 699 363 288 423 474 548 889 645 314 381 266 375 212 266 218 603 897 358 215 178 369 545 614 444
2616 2514 2464 2400 2285 2172 2064 1962 1965 2097 2234 2234 2221 2180 2022 1976 2137 2702 3203 3209 2880 2794 3022 2910 2877 2707 2950 3114 3112 3288 3352 3261 3303 3296 3279 3350 3341 3292 3210 3148 2994 2863 2587 2391 2115 1791 1487 1192 1015 820 633 526 279 202 231 784 812 547 660 455 240 603 606 414 326 378 446 516 664 701 530 196 320 323 259 251 394 760 427 285 552 480 456 381 275
2764 2671 2663 2631 2472 2276 2172 2084 2055 2146 2261 2334 2358 2312 2144 1949 1908 2148 2573 3077 3089 2743 2468 2739 2925 2813 2684 2911 3137 3303 3432 3357 3306 3419 3412 3367 3352 3286 3269 3234 3098 3049 2838 2577 2349 2070 1726 1406 1244 1042 947 695 534 338 228 365 761 660 520 647 439 370 608 532 420 447 456 493 565 700 534 498 136 319 482 410 467 732 356 345 521 633 494 302 302
2952 2790 2765 2774 2676 2476 2314 2224 2185 2226 2282 2358 2427 2445 2385 2100 1871 1939 2097 2403 2984 2996 2617 2310 2803 3045 2876 2723 2829 3157 3444 3457 3368 3379 3461 3437 3356 3253 3184 3210 3198 3099 2983 2743 2492 2259 1961 1644 1428 1253 1073 960 705 566 407 259 462 735 648 581 599 546 508 641 501 400 502 467 556 739 754 674 576 472 550 700 616 863 438 330 379 608 597 497 342
3125 2930 2877 2857 2776 2619 2431 2306 2294 2284 2313 2349 2408 2445 2446 2372 2105 1978 2114 2180 2431 2850 2916 2512 2303 2812 3162 3009 2804 2770 3161 3482 3457 3379 3391 3406 3342 3227 3082 3008 3122 3156 3043 2862 2620 2382 2146 1890 1632 1468 1245 1072 942 743 609 472 384 547 690 650 610 588 591 638 644 556 524 533 401 594 781 744 669 744 654 552 658 971 839 594 390 321 515 553 557
3319 3012 2901 2880 2828 2694 2524 2396 2349 2340 2322 2310 2372 2432 2366 2360 2421 2279 2234 2328 2389 2597 2838 2852 2524 2282 2752 3255 3234 2942 2934 3312 3464 3424 3372 3363 3318 3213 3070 2891 2833 3025 3047 2924 2736 2513 2292 2039 1828 1624 1473 1264 1073 926 790 681 560 495 607 681 660 609 595 660 708 684 618 616 616 553 676 854 889 677 658 527 475 618 926 878 715 588 520 485 492
3532 3210 2899 2802 2761 2710 2586 2487 2403 2369 2340 2247 2203 2294 2327 2245 2373 2542 2448 2392 2416 2530 2687 2818 2861 2542 2358 2669 3305 3450 3240 3247 3404 3428 3381 3368 3346 3259 3125 2939 2726 2733 2930 2892 2790 2668 2472 2257 2014 1814 1650 1483 1283 1094 972 851 770 706 642 725 722 652 629 613 804 771 726 668 712 738 702 750 855 927 792 614 568 545 523 700 819 817 688 607 586
3650 3437 3133 2810 2669 2657 2593 2496 2456 2418 2351 2252 2160 2172 2218 2185 2160 2384 2574 2478 2358 2355 2563 2670 2777 2902 2775 2570 2736 3268 3555 3446 3405 3434 3364 3334 3388 3363 3260 3090 2863 2672 2747 2855 2810 2723 2612 2446 2237 2017 1824 1680 1500 1322 1124 1031 919 875 830 809 887 805 699 650 760 952 850 767 683 711 822 869 928 980 996 825 683 638 605 585 533 538 675 727 655
3756 3569 3359 3063 2723 2620 2570 2476 2411 2445 2528 2438 2370 2344 2320 2248 2169 2236 2456 2448 2339 2221 2223 2577 2667 2744 3035 3037 2862 2940 3320 3553 3498 3469 3438 3305 3280 3392 3374 3248 3072 2874 2744 2798 2836 2749 2634 2533 2409 2242 2056 1874 1713 1531 1334 1169 1080 997 929 879 889 963 889 766 700 874 1049 959 849 768 763 742 734 843 1018 1034 768 698 614 556 535 492 458 477 600
3887 3708 3526 3298 2970 2728 2624 2502 2406 2414 2597 2671 2599 2485 2423 2349 2177 2172 2534 2602 2415 2234 2095 2217 2670 2779 2916 3236 3250 3107 3126 3415 3588 3519 3460 3374 3242 3279 3378 3330 3212 3060 2904 2766 2784 2824 2720 2582 2477 2370 2236 2099 1960 1796 1611 1404 1230 1105 1003 918 867 880 942 898 814 710 788 979 1004 909 831 787 728 605 694 869 870 756 692 630 576 536 509 498 445
3982 3846 3753 3634 3320 2953 2724 2604 2478 2421 2536 2737 2742 2598 2423 2311 2207 2140 2371 2824 2831 2640 2419 2216 2386 2890 2930 3129 3464 3436 3300 3273 3442 3674 3597 3471 3352 3275 3338 3424 3364 3260 3105 2927 2757 2713 2780 2754 2643 2519 2394 2282 2187 2060 1910 1731 1530 1345 1146 982 865 799 826 853 831 770 686 670 815 918 914 852 788 700 586 600 780 814 740 680 633 569 583 686 694
4068 4005 3906 3861 3726 3452 3109 2708 2650 2542 2498 2667 2813 2710 2505 2373 2242 2176 2268 2705 3028 2955 2802 2602 2440 2683 3100 3132 3324 3570 3570 3408 3374 3550 3685 3636 3489 3378 3380 3430 3494 3441 3327 3178 2981 2795 2735 2787 2793 2703 2595 2485 2366 2271 2165 2024 1885 1717 1524 1303 1075 866 724 746 756 737 715 665 628 675 820 912 902 846 774 618 635 774 793 727 663 604 541 492 516
4016 4061 3992 3930 3944 3766 3500 3138 2906 2763 2674 2662 2776 2809 2645 2434 2350 2318 2358 2523 2955 3187 3111 2969 2802 2583 2847 3359 3362 3475 3627 3630 3570 3523 3602 3664 3626 3465 3366 3410 3481 3511 3441 3308 3160 3016 2870 2822 2881 2902 2847 2722 2598 2444 2309 2251 2152 2021 1848 1692 1506 1278 1072 888 728 602 675 675 638 605 616 674 747 833 818 729 605 706 811 794 732 680 632 565 529
3924 4033 4025 3970 4077 4000 3784 3486 3170 3109 2991 2869 2789 2840 2797 2580 2416 2464 2546 2577 2688 3024 3287 3234 3098 2952 2740 2957 3416 3503 3634 3753 3788 3700 3628 3633 3633 3570 3330 3338 3349 3401 3466 3404 3281 3136 3028 2897 2854 2910 2961 2960 2895 2798 2677 2530 2364 2263 2158 2014 1843 1684 1522 1338 1148 958 785 676 636 592 599 579 615 654 737 738 674 606 723 791 762 721 709 685 562
3902 4047 4005 3974 4130 4170 4057 3799 3506 3426 3336 3213 3058 2975 2953 2831 2614 2561 2665 2745 2734 2719 2880 3239 3354 3316 3166 2885 2999 3446 3630 3790 3951 3953 3844 3730 3661 3632 3453 3307 3297 3274 3299 3397 3388 3265 3112 2990 2912 2889 2928 2985 2955 2928 2876 2816 2753 2672 2512 2337 2193 2062 1887 1706 1513 1348 1183 984 805 619 565 602 623 625 686 713 674 578 568 667 708 698 678 670 656
3788 4238 4082 3975 4179 4300 4233 4085 3884 3744 3648 3507 3345 3215 3190 3140 2936 2728 2700 2793 2837 2794 2738 2794 3151 3399 3439 3312 3064 3068 3611 3901 4043 4130 4116 4020 3890 3734 3565 3412 3305 3247 3216 3246 3375 3386 3266 3110 3036 2989 2917 2918 2969 2972 2941 2859 2824 2776 2700 2621 2506 2352 2177 1978 1791 1590 1318 1120 965 808 631 599 664 717 708 736 691 603 574 601 640 677 664 667 678
3623 4332 4354 4143 4261 4419 4387 4294 4143 4034 3957 3857 3664 3461 3353 3373 3338 3123 2892 2767 2826 2903 2872 2801 2837 3134 3432 3507 3404 3208 3179 3734 4197 4283 4280 4226 4138 3974 3737 3588 3423 3335 3233 3239 3271 3344 3364 3289 3140 3064 3038 2992 2915 2932 2983 2955 2862 2778 2694 2622 2561 2445 2316 2156 2070 1946 1710 1457 1223 1048 887 752 673 745 759 796 751 677 635 648 656 639 646 651 622
3606 3918 4582 4406 4426 4599 4572 4491 4390 4309 4260 4161 4033 3816 3605 3531 3581 3574 3356 3081 2910 2914 2991 3015 3008 3068 3296 3571 3624 3560 3394 3343 3708 4260 4505 4524 4440 4343 4225 4118 4004 3918 3785 3582 3405 3281 3402 3401 3344 3193 3041 2976 2965 2892 2802 2822 2814 2751 2668 2594 2504 2413 2316 2176 2115 2026 1936 1782 1560 1341 1186 1028 899 741 814 828 851 784 702 660 641 586 590 569 556
3703 3701 4480 4642 4539 4735 4818 4772 4717 4657 4578 4473 4358 4229 4045 3869 3808 3919 3812 3598 3326 3173 3205 3270 3318 3355 3393 3510 3768 3836 3801 3751 3661 3663 3940 4368 4578 4593 4534 4440 4362 4288 4200 4095 3964 3834 3672 3612 3670 3576 3396 3224 3050 3011 2882 2731 2688 2640 2614 2562 2485 2396 2309 2135 2100 2000 1930 1871 1716 1518 1375 1246 1119 1000 864 840 826 837 759 705 628 576 563 519 467
3792 3719 4220 4810 4664 4715 4949 5007 5054 5037 4973 4888 4746 4584 4433 4284 4250 4267 4240 4034 3797 3525 3418 3465 3579 3654 3680 3700 3711 3885 4011 4068 4047 3997 3883 3760 3871 4343 4532 4568 4539 4484 4418 4332 4247 4153 3998 3836 3680 3826 3909 3834 3700 3563 3422 3248 3035 2823 2649 2511 2357 2448 2365 2222 2138 2026 1896 1826 1753 1586 1290 1179 1162 1096 1036 957 945 846 760 666 604 570 526 480 473
3954 3956 4068 4851 4786 4744 4961 5178 5303 5297 5259 5209 5133 4971 4770 4614 4530 4583 4581 4453 4228 3986 3706 3614 3656 3780 3842 3868 3844 3824 3904 4012 4115 4137 4127 4060 3958 3812 3833 4065 4217 4318 4375 4384 4364 4326 4252 4152 4021 3850 3652 3740 3924 3924 3886 3778 3650 3464 3264 3041 2820 2674 2570 2432 2357 2199 2080 1944 1821 1728 1615 1429 1231 1162 1116 1085 1017 926 830 737 668 624 589 561 531
4212 4175 4197 4781 4880 4820 4967 5308 5508 5510 5449 5393 5373 5276 5128 4884 4724 4691 4692 4673 4555 4364 4120 3868 3827 3956 4180 4259 4190 4120 4104 4069 4139 4153 4231 4265 4213 4136 4028 3944 3847 3812 3989 4102 4178 4235 4257 4234 4153 4049 3910 3751 3595 3902 3998 3998 3953 3868 3762 3596 3422 3224 3047 2894 2758 2630 2471 2316 2169 2030 1867 1695 1502 1265 1136 1128 1102 1043 905 800 750 690 666 639 590
4404 4383 4337 4686 4904 4862 4955 5360 5635 5679 5601 5511 5435 5370 5323 5175 4973 4827 4803 4775 4694 4562 4416 4200 3997 3937 4021 4265 4456 4501 4435 4409 4323 4245 4191 4153 4173 4292 4249 4204 4164 4072 4027 3991 3990 4050 4078 4101 4118 4071 3996 3901 3792 3668 3640 3851 3886 3898 3864 3825 3726 3588 3430 3218 2974 2777 2583 2463 2411 2282 2172 2014 1768 1522 1317 1214 1062 1069 1006 899 794 762 709 684 643
4594 4549 4404 4540 4929 4933 5054 5421 5635 5648 5683 5638 5532 5431 5362 5251 5121 4952 4914 4871 4795 4738 4623 4504 4300 4100 4070 4231 4494 4572 4646 4690 4683 4473 4374 4291 4357 4406 4388 4350 4302 4272 4208 4162 4081 4017 3976 4022 4034 4018 3955 3901 3824 3751 3684 3602 3520 3632 3736 3747 3727 3625 3530 3390 3193 2912 2621 2511 2435 2454 2426 2239 2005 1800 1619 1460 1201 984 985 906 822 804 779 721 638
4957 4786 4652 4687 5011 5184 5164 5363 5548 5512 5540 5677 5654 5576 5463 5286 5144 5043 5028 4951 4906 4876 4873 4842 4716 4472 4340 4395 4626 4796 4748 5704 4858 4665 4544 4359 4269 4231 4262 4281 4256 4191 4180 4158 4141 4110 4049 4010 4012 4016 4012 3991 3928 3859 3761 3699 3614 3547 3548 3607 3568 3487 3394 3299 3187 2933 2812 2560 2541 2506 2541 2433 2244 2017 1867 1751 1715 1292 926 885 788 730 717 683 628
5145 5019 4936 4922 4971 5320 5410 5359 5422 5338 5331 5512 5649 5694 5609 5404 5226 5255 5141 5017 5001 5047 5139 5126 5008 4833 4585 4650 4655 4686 4642 4194 4065 3988 3852 3862 3820 3783 3713 3673 3648 3589 3666 3714 3763 3821 3880 3915 3928 3952 3969 3988 3926 3840 3782 3755 3718 3637 3581 3488 3475 3441 3391 3246 3132 2749 2759 2654 2448 2350 2324 2208 2112 2099 1868 1862 1475 1574 1141 840 736 671 618 597 568
5701 5310 5216 5226 5131 5276 5485 5517 5450 5275 5464 5578 5624 5681 5614 5492 5322 5378 5346 5205 5118 5148 5287 5246 5138 5022 4959 4716 4648 4336 4354 4141 4048 3879 3788 3843 3884 3860 3842 3896 3875 3815 3793 3754 3696 3652 3601 3548 3549 3541 3512 3577 3599 3596 3633 3686 3692 3654 3586 3499 3350 3301 3248 3073 2848 2874 2333 2096 2070 1929 2004 1808 1654 1680 1902 1800 1723 1722 1353 878 578 536 624 571 557
5515 5550 5321 5238 5113 5026 5246 6252 5681 5358 5463 5551 5689 5575 5453 5403 5251 5394 5439 5304 5202 5116 5010 5008 4995 5010 4901 4747 4591 4400 4105 3964 3928 3946 3880 3850 3840 3844 3837 3786 3725 3664 3600 3554 3525 3506 3468 3432 3428 3422 3448 3485 3493 3437 3416 3387 3342 3317 3329 3296 3274 3195 3216 3168 2803 2614 2160 2021 1565 1599 1772 1710 1799 1725 1729 1659 1634 1497 1326 854 723 576 570 523 504
5254 5459 5308 5064 4918 5190 4912 5394 5142 5069 5066 5082 5257 5344 5348 5416 5142 5104 5058 5098 4981 4888 4720 4552 4485 4379 4266 4361 4408 4300 4185 4063 3942 3840 3824 3795 3758 3695 3611 3538 3523 3548 3513 3336 3254 3286 3195 3050 3020 2955 2879 2864 2864 2827 2724 2648 2478 2289 2034 2115 2358 2508 2528 2473 2385 2531 2713 2219 1958 2329 2011 1559 1687 1648 1718 1241 1201 1153 1282 1016 812 836 504 453 549
5120 5271 5364 5319 5250 5169 5113 4651 4839 4728 4754 4702 4783 5008 4964 5034 5061 4959 4921 4822 4700 4561 4437 4375 4269 4143 3923 3880 3975 4147 4055 3982 3905 3804 3757 3691 3640 3582 3532 3510 3432 3294 3080 3024 2970 2807 2636 2394 2063 1689 1171 668 323 104 98 216 353 510 700 903 1068 1173 1216 1265 1346 1369 1496 1668 2007 2305 2352 2072 2012 1582 1562 1518 1383 1130 1066 1087 1066 743 522 442 636
4804 4808 4831 4760 4644 4509 4410 4339 4326 4500 4508 4459 4350 4484 4588 4473 4494 4508 4485 4343 4202 4157 4226 4091 3913 3908 3888 3919 3854 3865 3903 3879 3859 3757 3663 3590 3507 3384 3266 3149 3034 2934 2750 2620 2272 1365 606 0 0 0 0 0 0 0 0 0 0 3 79 206 382 608 720 767 787 829 879 973 1187 1464 1641 1616 1788 2037 1967 1440 1264 1136 885 864 697 715 500 442 480
4760 4629 4546 4492 4429 4320 4199 4152 4112 4168 4223 4174 4069 3941 4152 4124 3926 3953 4099 4098 4104 4102 4120 4066 3996 4036 4008 3947 3926 3868 3750 3693 3617 3518 3339 3156 3022 2882 2642 2348 1785 999 309 0 0 0 0 0 0 0 0 0 0 0 0 0 0 0 0 0 12 132 356 506 587 609 580 665 804 996 1156 1299 1348 1588 1766 1767 1491 1380 1281 1259 757 728 572 504 325
4704 4581 4449 4377 4348 4226 4122 4078 4197 4120 4009 3890 3831 3710 3686 3772 3705 3690 3788 3888 3907 3858 3847 3800 3762 3727 3694 3611 3502 3439 3311 3148 2922 2620 2346 2128 1944 1058 0 0 0 0 0 0 0 0 0 0 0 0 0 0 0 0 0 0 0 0 0 0 0 0 3 98 292 425 514 542 594 692 877 1095 1210 1244 1346 1504 1609 978 1065 1110 1090 875 609 499 298
4441 4578 4441 4283 4296 4156 4082 4014 3970 4000 3851 3748 3718 3695 3718 3758 3724 3623 3627 3579 3523 3481 3391 3345 3288 3233 3164 3092 3020 2954 2872 2781 2468 1758 274 0 0 0 0 0 0 0 0 0 0 0 0 0 0 0 0 0 0 0 0 0 0 0 0 0 0 0 0 0 14 151 374 466 489 541 635 751 930 1082 1100 1127 1159 1243 741 926 664 798 550 579 422
3485 3830 4210 4210 4142 3978 3864 3893 3868 3820 3720 3609 3537 3481 3447 3382 3388 3399 3284 3232 3229 3254 3122 2954 2893 2653 2297 1644 910 0 0 0 0 0 0 0 0 0 0 0 0 0 0 0 0 0 0 0 0 0 0 0 0 0 0 0 0 0 0 0 0 0 0 0 1 14 120 319 457 491 544 596 587 719 881 1109 1063 982 524 410 632 748 879 661 474
2806 3095 3331 3650 3799 3758 3558 3469 3518 3598 3546 3413 3311 3293 3131 3024 2898 2823 2861 2875 2674 2398 2087 1246 109 0 0 0 0 0 0 0 0 0 0 0 0 0 0 0 0 0 0 0 0 0 0 0 0 0 0 1 1 1 2 3 2 2 2 1 0 0 0 0 0 5 28 134 258 397 499 520 523 446 494 698 747 718 662 648 439 492 606 611 418
1430 1489 1969 2774 3332 3390 3292 3300 3182 3122 3021 2996 2964 2797 2554 1356 515 174 37 418 689 640 466 362 0 0 0 0 0 0 0 0 0 0 0 0 0 0 0 0 0 0 0 0 0 0 0 0 2 3 3 3 3 4 3 3 4 5 3 2 3 2 1 0 0 1 17 62 138 239 336 375 451 451 312 91 237 454 527 563 517 484 429 364 288
1145 1226 1405 1478 2157 2701 2831 2771 2721 2716 2487 2352 2068 1531 616 721 854 545 253 223 306 354 658 406 118 2 33 79 99 0 0 0 0 0 0 0 0 0 0 0 0 0 0 0 0 0 0 2 4 4 4 3 3 1 0 1 2 3 4 4 2 1 0 0 0 0 2 7 27 42 66 195 320 167 76 90 200 372 244 318 322 460 489 356 388
424 528 751 776 695 743 886 856 1030 1083 445 523 592 555 330 127 306 788 1063 575 686 482 376 480 566 327 298 182 6 0 0 0 0 0 0 0 0 0 0 0 0 0 0 0 0 0 2 5 5 3 2 0 0 0 0 0 0 0 1 1 1 2 4 9 5 1 0 1 9 15 27 53 58 53 74 113 147 113 232 292 316 437 430 290 323
731 690 743 824 772 615 531 598 462 442 565 330 279 288 423 442 360 165 128 152 186 235 158 19 3 133 218 60 26 19 1 0 0 0 0 0 0 0 0 0 0 0 0 0 0 2 5 5 4 0 0 0 0 0 0 0 0 0 0 0 0 0 1 2 6 6 2 0 0 2 8 17 36 72 68 68 78 97 92 165 157 273 265 288 300
576 561 572 577 493 466 562 578 559 326 12 131 432 37 16 15 4 2 0 2 7 16 108 376 414 145 16 0 0 0 0 5 0 0 0 0 0 0 0 0 2 4 4 5 6 6 6 4 1 0 0 0 0 0 0 0 0 0 0 0 0 0 0 0 1 4 6 2 2 4 6 12 22 12 6 1 14 1 9 35 149 167 258 212 2
457 492 458 346 452 106 81 492 564 574 552 512 468 188 0 0 0 0 0 0 0 0 0 0 0 0 0 0 8 0 0 0 0 0 0 0 0 0 0 2 3 8 10 10 9 6 4 2 0 0 0 0 0 0 0 0 0 0 0 0 0 0 0 0 0 0 0 0 0 0 0 0 0 0 0 0 0 4 0 1 15 78 22 2 7
13 0 0 0 219 416 88 51 495 592 570 528 526 538 325 0 0 0 0 0 0 0 0 0 0 0 0 0 0 0 0 0 0 0 0 0 0 2 4 4 5 6 6 4 5 2 0 0 1 0 0 0 0 0 0 0 0 0 0 0 0 0 0 0 0 0 0 0 0 0 0 0 0 1 0 0 0 24 30 0 0 2 4 1 2
51 204 283 122 0 0 0 0 0 0 0 0 0 0 0 0 0 0 0 0 0 0 0 0 0 0 0 0 0 0 0 0 0 0 0 1 4 4 5 7 6 4 4 4 7 0 0 0 0 0 0 0 0 0 0 0 0 0 0 0 0 0 0 0 0 0 0 0 0 0 0 0 0 0 0 0 0 0 0 1 1 2 2 2 3
220 236 35 0 0 44 0 0 0 0 0 0 0 0 0 0 0 0 0 0 0 0 0 0 0 0 0 0 0 0 0 0 0 1 6 10 10 10 8 4 2 3 2 1 0 0 4 3 0 0 0 0 0 0 0 0 0 0 0 0 0 0 0 0 0 0 0 0 0 0 0 0 0 0 0 0 0 0 0 0 0 0 0 0 0
156 90 0 0 0 0 0 0 0 0 0 0 0 0 0 0 0 0 0 0 0 0 0 0 0 0 0 1 2 1 1 2 2 3 8 5 8 8 7 1 2 6 2 0 2 2 4 0 0 0 0 0 0 0 0 0 0 0 0 0 0 0 0 0 0 0 0 0 0 0 0 0 0 0 0 0 0 0 0 6 7 11 31 47 54
3 0 0 0 0 0 0 0 0 0 0 0 0 0 0 0 1 2 2 2 1 1 0 0 2 2 2 2 2 4 6 6 3 3 4 8 7 6 1 1 3 3 2 2 4 6 5 1 0 0 0 0 0 0 0 0 0 0 0 0 0 0 0 0 0 0 0 0 0 0 0 0 0 0 0 0 0 0 6 16 19 31 42 35 45
0 0 0 0 0 0 0 0 0 0 0 1 0 0 0 0 0 0 0 0 0 1 1 1 1 0 2 3 4 6 6 6 6 4 7 12 4 11 2 3 2 2 2 2 2 1 1 1 1 1 1 4 7 11 7 0 0 0 0 0 0 0 0 0 0 0 0 0 0 0 0 0 0 0 0 0 0 17 33 35 43 37 41 47 46
0 0 0 0 0 0 0 0 0 0 0 0 0 0 0 0 0 0 0 1 1 1 0 1 1 1 1 1 2 4 5 6 4 3 9 6 3 2 3 8 6 3 0 1 1 0 1 1 1 0 0 0 0 8 9 12 0 0 0 0 0 0 0 0 0 0 0 0 0 0 0 0 0 0 0 0 0 0 0 6 22 31 30 29 32
0 0 0 0 0 0 0 0 0 0 0 0 0 0 0 0 0 0 0 0 0 0 0 1 1 1 1 1 3 4 5 3 5 5 5 5 2 4 3 2 5 9 2 0 0 0 0 0 0 0 1 4 2 1 1 2 0 0 4 8 1 0 0 0 0 0 0 0 0 0 0 0 0 0 0 0 0 0 0 0 0 0 0 0 0
0 0 0 0 0 0 0 0 0 0 0 0 0 0 0 0 0 0 0 0 0 0 0 1 2 2 2 2 5 4 6 4 4 3 3 6 2 1 1 2 2 4 4 5 2 0 1 2 1 0 0 3 5 0 0 0 0 0 0 8 9 1 0 0 0 0 0 0 0 0 0 0 0 0 0 0 0 0 0 0 0 0 0 0 0
Wind_Speed
5 4 4 4 5 5 5 4 5 5 5 5 5 6 7 8 10 12 13 13 14 14 15 16 17 17 18 18 18 17 17 18 17 16 15 14 13 13 13 14 16 17 18 18 18 18 16 14 12 12 12 13 14 13 14 16 17 18 18 18 18 17 18 17 17 14 9 12 14 16 20 23 23 25 27 26 25 26 28 29 30 30 31 31 32
4 3 2 3 5 5 6 5 6 6 6 6 5 5 6 8 10 12 14 15 16 16 17 17 18 18 18 18 18 18 17 17 18 17 16 15 15 14 14 14 15 16 17 18 18 18 18 17 14 13 13 15 15 16 16 16 17 18 19 20 19 18 18 19 18 18 17 11 12 14 19 22 25 24 27 27 26 25 27 27 28 30 31 32 32
6 5 4 4 4 5 6 6 7 7 7 6 6 7 8 10 11 13 14 16 17 17 17 17 17 18 17 17 17 17 17 17 17 18 17 17 16 15 15 16 17 17 18 19 20 19 19 19 18 16 14 14 15 16 17 17 17 19 19 19 20 19 19 20 21 20 19 17 17 17 20 21 23 23 24 25 26 28 29 29 29 29 30 32 33
7 6 5 5 6 6 6 7 8 8 7 7 8 8 10 11 13 14 15 16 16 16 16 16 16 17 18 17 16 16 17 17 17 18 18 18 17 16 16 16 17 18 19 20 21 21 21 20 19 19 17 17 16 16 17 18 18 18 19 19 20 20 20 21 22 22 21 20 17 20 20 23 21 21 24 25 27 28 29 29 29 30 31 32 33
8 8 8 8 7 7 6 7 7 8 7 7 8 10 11 12 13 14 15 15 15 15 14 16 16 16 16 17 17 17 17 17 17 17 18 19 19 18 17 17 17 19 19 20 21 21 21 21 21 21 19 18 17 17 18 18 18 19 20 20 21 21 21 22 23 24 24 24 20 19 19 20 22 23 26 27 25 27 28 31 33 33 33 33 33
7 7 7 8 8 8 7 6 7 7 8 8 10 11 12 12 13 13 14 14 14 14 15 15 16 16 15 15 16 17 17 17 17 17 18 19 19 18 17 17 17 18 19 20 21 20 19 19 20 21 21 20 19 20 20 21 20 19 20 21 22 23 23 23 24 25 25 25 26 22 21 22 21 23 26 29 30 29 28 29 31 34 36 34 34
7 6 7 7 7 7 7 7 7 8 9 10 11 12 13 13 13 14 14 14 14 13 14 15 15 16 16 15 15 16 16 16 16 16 16 17 18 19 18 18 17 17 19 21 21 21 19 18 18 20 21 21 21 21 22 22 22 22 22 22 23 24 25 25 25 26 26 26 26 27 27 26 28 26 25 29 30 32 32 30 30 32 35 38 37
8 8 7 6 6 7 7 8 8 9 10 11 13 13 13 13 13 13 13 13 13 13 14 15 14 14 15 15 15 14 14 14 14 15 16 16 16 17 18 19 19 18 18 19 20 20 20 19 19 20 21 21 22 22 23 23 24 23 23 24 25 25 25 26 27 28 28 28 28 28 29 30 28 29 30 31 30 28 32 34 33 33 34 36 39
10 10 9 8 8 7 7 7 8 10 12 13 14 14 13 13 13 13 13 13 12 12 12 13 14 13 13 13 14 13 13 13 12 13 15 16 16 16 17 17 18 18 17 17 18 18 19 19 19 19 21 23 26 25 26 26 26 25 26 27 28 28 26 27 28 29 29 30 29 30 31 31 32 35 34 34 36 35 35 35 34 33 34 35 36
12 11 11 10 8 8 8 9 10 11 13 14 14 14 14 14 13 13 13 13 13 12 12 12 12 13 13 13 13 12 11 10 12 18 17 15 15 14 14 15 17 18 18 18 17 18 19 19 19 24 25 26 27 28 29 29 30 28 28 30 30 30 29 29 29 29 30 30 31 33 33 32 34 37 37 36 36 35 37 38 38 36 36 34 35
11 12 12 11 12 11 11 10 11 12 12 13 15 15 15 15 14 12 12 13 14 13 12 12 11 12 14 13 13 11 10 9 16 17 19 20 16 14 14 15 16 17 17 18 19 19 18 19 18 22 25 25 27 30 30 31 32 32 32 33 33 34 32 32 30 30 31 30 31 33 33 32 34 38 38 39 40 40 38 40 41 43 41 40 38
10 11 11 12 14 14 13 13 13 12 12 13 15 15 16 15 14 12 12 13 13 13 13 12 10 11 12 13 12 11 10 14 18 19 20 20 19 15 13 13 14 16 17 18 18 18 19 19 18 18 20 23 25 27 30 33 33 33 33 33 34 36 36 35 33 32 32 32 32 33 33 32 35 39 39 42 42 42 41 42 43 45 44 43 42
9 11 12 14 16 16 16 16 16 14 13 13 14 16 16 15 14 13 12 12 13 13 13 12 11 11 12 13 12 12 12 16 19 21 21 22 22 19 13 13 14 15 16 17 18 18 18 18 18 19 20 26 26 25 26 27 30 34 34 34 35 36 35 35 36 35 36 35 34 34 34 35 37 37 42 44 45 44 45 44 44 45 45 45 45
10 12 14 16 18 19 19 18 17 17 15 14 14 15 15 13 12 13 13 13 12 11 12 12 12 12 12 12 13 13 13 16 21 22 22 23 23 21 15 15 14 14 16 17 17 18 20 20 20 20 21 22 23 25 26 26 27 28 28 28 29 31 33 36 36 36 36 35 35 34 33 38 37 38 43 47 49 47 48 46 47 46 47 46 48
12 14 15 17 19 21 22 20 19 18 17 16 15 13 12 11 11 12 13 13 12 11 11 12 12 13 13 12 12 12 11 17 21 22 23 24 25 24 18 16 15 15 15 16 17 18 19 20 21 22 23 23 24 27 28 28 28 28 28 28 28 28 30 31 32 32 34 32 33 33 33 37 37 39 44 46 48 48 49 49 50 48 47 47 49
14 15 16 17 19 21 23 23 21 19 18 17 15 13 11 11 10 11 11 11 11 11 10 10 11 12 12 12 11 10 10 17 20 22 24 24 26 22 21 21 20 20 19 18 17 17 18 20 20 21 22 24 25 31 32 32 31 31 30 29 28 28 28 31 35 37 37 35 33 34 35 38 40 41 44 46 47 48 49 48 49 49 51 51 50
16 17 17 18 19 20 22 23 23 21 20 19 16 14 13 11 11 12 10 9 10 11 11 11 11 12 12 12 11 9 9 14 20 21 22 24 24 20 21 22 23 23 22 22 21 19 19 20 20 21 23 24 26 32 35 38 34 33 32 31 31 30 29 30 33 38 40 39 38 38 38 41 43 43 46 49 49 51 52 52 51 54 54 51 50
19 21 20 19 20 20 21 22 24 24 23 20 17 16 15 14 13 14 10 8 7 9 10 10 11 11 11 11 11 10 10 13 19 20 23 26 26 22 22 23 22 23 23 25 25 23 22 23 24 24 25 26 28 32 36 40 36 36 36 35 34 31 30 32 35 38 41 42 42 41 41 43 45 46 47 49 51 53 53 51 52 55 53 52 52
23 23 24 23 22 22 22 22 23 24 25 22 18 16 16 16 16 15 11 8 6 8 10 10 10 10 9 8 9 9 8 11 20 22 23 25 24 21 23 22 22 22 25 25 26 26 26 27 28 28 28 29 32 34 38 41 37 37 38 38 37 34 32 38 40 40 43 44 42 41 40 41 44 46 45 50 52 53 51 50 54 56 54 53 54
27 28 28 27 25 24 23 23 22 23 24 22 16 14 16 17 17 14 12 9 8 8 9 9 9 9 10 9 9 10 11 12 18 23 26 26 27 22 21 22 20 21 22 22 23 25 26 28 30 30 29 29 32 35 39 43 40 39 40 40 37 34 35 42 42 43 44 47 45 45 44 44 44 44 44 46 48 50 50 53 57 59 58 58 58
31 30 30 29 28 26 25 23 23 23 25 23 18 15 15 15 16 15 12 11 10 9 8 9 9 10 11 11 11 13 14 13 17 25 25 27 29 28 23 22 22 23 22 21 21 23 25 28 28 30 32 32 32 34 38 42 43 42 43 42 40 36 39 42 42 45 46 47 48 47 45 46 46 46 45 45 47 48 50 53 57 59 60 61 61
31 31 30 30 30 29 28 26 25 25 27 26 22 18 16 15 15 14 14 13 11 10 11 11 10 11 13 14 14 14 15 16 18 24 28 28 31 34 27 26 28 28 25 23 23 24 26 28 29 30 32 34 36 37 39 42 44 44 41 41 40 39 40 42 45 48 49 48 48 48 46 46 46 47 47 48 48 49 51 53 55 56 57 59 61
29 29 29 29 30 30 30 30 28 27 27 27 25 23 21 18 16 15 14 13 13 12 12 12 12 13 15 16 18 18 18 19 20 25 28 31 33 34 34 31 34 33 30 28 27 27 29 30 31 32 33 35 38 40 41 43 45 44 41 39 40 40 42 44 46 49 51 51 49 47 46 46 47 47 47 48 49 51 51 55 57 57 57 57 58
24 25 25 27 29 30 32 32 31 30 29 28 27 27 25 22 20 18 17 16 16 14 14 15 15 15 17 18 21 21 23 23 24 27 29 29 31 34 34 33 34 33 32 29 29 30 32 34 34 31 32 35 40 43 44 45 46 45 44 41 40 40 44 45 47 50 53 54 51 48 46 47 48 48 48 49 51 52 53 55 58 59 60 61 61
21 21 23 26 28 29 31 32 32 32 32 31 30 30 28 27 24 23 22 21 20 18 18 20 19 20 21 23 24 27 29 33 38 36 39 34 33 31 29 26 24 28 32 31 33 36 37 33 33 36 38 38 39 40 40 41 41 45 48 47 45 45 46 48 49 53 56 55 53 50 48 48 48 48 51 53 55 56 55 53 57 60 63 64 65
20 20 22 25 26 28 28 29 31 32 33 32 32 32 31 29 27 27 26 25 24 24 24 24 24 26 27 28 31 32 36 41 39 38 37 40 38 38 38 36 35 37 38 35 30 28 29 30 31 32 38 44 49 52 53 51 49 47 43 41 45 48 51 53 55 58 60 62 60 56 54 53 53 54 57 59 59 60 60 59 61 61 62 63 66
26 24 24 25 26 26 27 28 30 31 33 33 33 32 32 31 31 30 28 27 28 29 30 29 30 32 32 33 34 40 43 42 41 41 42 43 43 42 42 41 40 43 44 43 42 42 41 42 45 44 44 42 44 48 49 49 51 51 53 53 54 53 52 53 57 62 64 67 68 65 63 59 58 60 63 65 63 64 66 65 63 62 62 61 63
29 28 27 27 27 27 28 29 31 33 35 35 34 33 33 33 33 33 31 31 32 31 34 35 35 34 35 37 43 45 45 45 43 45 45 46 46 47 46 47 48 48 49 50 50 49 49 49 48 50 51 52 54 56 57 56 55 52 53 55 55 54 51 49 49 60 65 70 71 68 62 61 59 61 64 65 63 65 68 65 64 64 61 60 59
32 31 29 29 28 29 29 30 34 36 38 41 41 40 36 37 41 41 38 33 33 36 36 40 42 43 44 44 46 46 46 47 45 44 48 48 50 50 50 50 50 51 54 54 51 53 54 53 53 52 54 55 57 58 57 56 54 54 53 53 52 51 50 51 53 58 64 69 69 67 65 67 66 67 66 65 64 65 65 65 62 58 57 57 55
37 36 35 34 33 35 35 36 36 37 39 40 43 46 49 52 46 43 42 45 52 50 48 45 46 48 50 46 44 48 48 47 48 51 50 50 52 54 53 52 52 52 54 56 59 58 58 57 57 58 57 59 59 59 nan 57 56 54 52 51 51 51 52 53 56 60 65 68 68 66 68 70 70 69 68 66 65 65 66 65 57 55 57 56 54
38 37 37 37 37 38 38 38 37 39 39 41 43 45 46 50 56 56 52 51 57 59 61 60 58 57 56 53 52 58 57 55 53 51 51 52 53 55 56 55 54 55 57 59 61 61 61 nan nan nan nan nan nan nan nan nan nan nan nan 52 53 52 53 55 57 60 63 65 65 65 65 68 69 71 71 71 70 67 63 58 56 56 55 55 54
38 37 38 38 40 39 39 40 39 40 40 41 43 44 47 49 50 53 55 56 58 60 61 61 61 60 61 58 53 51 55 55 54 54 54 54 55 56 57 57 58 61 62 nan nan nan nan nan nan nan nan nan nan nan nan nan nan nan nan nan nan 52 52 52 54 57 58 60 61 62 62 63 65 69 72 72 72 69 65 63 60 59 57 57 59
40 39 39 40 40 41 40 40 39 39 40 41 42 43 46 48 50 49 49 52 55 56 57 59 61 61 62 61 60 57 55 55 58 58 58 58 59 58 nan nan nan nan nan nan nan nan nan nan nan nan nan nan nan nan nan nan nan nan nan nan nan nan nan nan 48 50 52 55 58 60 60 60 62 66 69 70 70 68 68 68 65 63 62 64 64
41 40 41 41 42 42 42 41 41 40 40 40 41 43 44 45 46 47 48 48 50 51 53 54 56 59 58 58 58 56 56 57 57 61 64 nan nan nan nan nan nan nan nan nan nan nan nan nan nan nan nan nan nan nan nan nan nan nan nan nan nan nan nan nan nan 47 49 53 57 58 59 59 60 63 66 67 68 69 71 70 68 66 65 67 66
43 45 49 45 43 44 44 44 45 44 43 43 43 45 45 45 45 46 46 47 48 49 48 47 45 47 50 51 53 nan nan nan nan nan nan nan nan nan nan nan nan nan nan nan nan nan nan nan nan nan nan nan nan nan nan nan nan nan nan nan nan nan nan nan nan nan 52 53 55 57 58 58 60 62 64 67 67 68 67 68 66 66 67 66 63
47 46 45 47 46 46 46 47 47 47 46 47 47 47 46 46 46 46 46 48 49 48 48 48 48 nan nan nan nan nan nan nan nan nan nan nan nan nan nan nan nan nan nan nan nan nan nan nan nan nan nan nan nan nan nan nan nan nan nan nan nan nan nan nan nan nan nan 55 55 55 56 59 60 62 64 66 68 66 65 65 66 67 68 65 63
48 48 48 48 48 48 49 49 49 50 50 51 51 51 50 50 50 50 nan 50 49 48 49 51 nan nan nan nan nan nan nan nan nan nan nan nan nan nan nan nan nan nan nan nan nan nan nan nan nan nan nan nan nan nan nan nan nan nan nan nan nan nan nan nan nan nan nan nan 57 56 56 57 59 62 66 nan 67 66 66 66 69 70 68 67 64
50 50 50 49 48 50 51 52 53 55 54 53 52 52 52 52 52 51 51 51 52 51 49 51 51 nan nan nan nan nan nan nan nan nan nan nan nan nan nan nan nan nan nan nan nan nan nan nan nan nan nan nan nan nan nan nan nan nan nan nan nan nan nan nan nan nan nan nan nan nan nan 56 56 57 nan nan 61 64 65 66 69 69 66 65 62
51 52 51 50 51 52 53 52 53 53 54 53 52 53 53 53 53 52 51 51 51 52 53 55 56 56 56 55 nan nan nan nan nan nan nan nan nan nan nan nan nan nan nan nan nan nan nan nan nan nan nan nan nan nan nan nan nan nan nan nan nan nan nan nan nan nan nan nan nan nan nan nan nan nan nan 48 49 46 47 49 49 51 54 55 55
54 54 57 61 57 58 57 57 57 57 56 57 56 56 56 55 55 56 56 56 56 57 58 nan nan 59 59 nan nan nan nan nan nan nan nan nan nan nan nan nan nan nan nan nan nan nan nan nan nan nan nan nan nan nan nan nan nan nan nan nan nan nan nan nan nan nan nan nan nan nan nan nan nan nan nan nan nan nan nan 44 46 44 42 44 51
57 58 58 58 59 59 60 60 60 60 nan 60 59 nan nan nan nan nan nan nan nan nan 61 60 61 60 nan nan nan nan nan nan nan nan nan nan nan nan nan nan nan nan nan nan nan nan nan nan nan nan nan nan nan nan nan nan nan nan nan nan nan nan nan nan nan nan nan nan nan nan nan nan nan nan nan nan nan nan nan nan 63 64 51 45 nan
62 61 61 61 62 63 nan 63 62 64 63 63 62 61 nan nan nan nan nan nan nan nan nan nan nan nan nan nan nan nan nan nan nan nan nan nan nan nan nan nan nan nan nan nan nan nan nan nan nan nan nan nan nan nan nan nan nan nan nan nan nan nan nan nan nan nan nan nan nan nan nan nan nan nan nan nan nan nan nan nan nan nan nan nan nan
nan nan nan nan 66 65 nan nan 65 65 65 65 63 64 64 nan nan nan nan nan nan nan nan nan nan nan nan nan nan nan nan nan nan nan nan nan nan nan nan nan nan nan nan nan nan nan nan nan nan nan nan nan nan nan nan nan nan nan nan nan nan nan nan nan nan nan nan nan nan nan nan nan nan nan nan nan nan nan nan nan nan nan nan nan nan
nan 69 69 69 nan nan nan nan nan nan nan nan nan nan nan nan nan nan nan nan nan nan nan nan nan nan nan nan nan nan nan nan nan nan nan nan nan nan nan nan nan nan nan nan nan nan nan nan nan nan nan nan nan nan nan nan nan nan nan nan nan nan nan nan nan nan nan nan nan nan nan nan nan nan nan nan nan nan nan nan nan nan nan nan nan
69 70 nan nan nan nan nan nan nan nan nan nan nan nan nan nan nan nan nan nan nan nan nan nan nan nan nan nan nan nan nan nan nan nan nan nan nan nan nan nan nan nan nan nan nan nan nan nan nan nan nan nan nan nan nan nan nan nan nan nan nan nan nan nan nan nan nan nan nan nan nan nan nan nan nan nan nan nan nan nan nan nan nan nan nan
70 nan nan nan nan nan nan nan nan nan nan nan nan nan nan nan nan nan nan nan nan nan nan nan nan nan nan nan nan nan nan nan nan nan nan nan nan nan nan nan nan nan nan nan nan nan nan nan nan nan nan nan nan nan nan nan nan nan nan nan nan nan nan nan nan nan nan nan nan nan nan nan nan nan nan nan nan nan nan nan nan nan nan nan nan
nan nan nan nan nan nan nan nan nan nan nan nan nan nan nan nan nan nan nan nan nan nan nan nan nan nan nan nan nan nan nan nan nan nan nan nan nan nan nan nan nan nan nan nan nan nan nan nan nan nan nan nan nan nan nan nan nan nan nan nan nan nan nan nan nan nan nan nan nan nan nan nan nan nan nan nan nan nan nan nan nan nan nan nan nan
nan nan nan nan nan nan nan nan nan nan nan nan nan nan nan nan nan nan nan nan nan nan nan nan nan nan nan nan nan nan nan nan nan nan nan nan nan nan nan nan nan nan nan nan nan nan nan nan nan nan nan nan nan nan nan nan nan nan nan nan nan nan nan nan nan nan nan nan nan nan nan nan nan nan nan nan nan nan nan nan nan nan nan nan nan
nan nan nan nan nan nan nan nan nan nan nan nan nan nan nan nan nan nan nan nan nan nan nan nan nan nan nan nan nan nan nan nan nan nan nan nan nan nan nan nan nan nan nan nan nan nan nan nan nan nan nan nan nan nan nan nan nan nan nan nan nan nan nan nan nan nan nan nan nan nan nan nan nan nan nan nan nan nan nan nan nan nan nan nan nan
nan nan nan nan nan nan nan nan nan nan nan nan nan nan nan nan nan nan nan nan nan nan nan nan nan nan nan nan nan nan nan nan nan nan nan nan nan nan nan nan nan nan nan nan nan nan nan nan nan nan nan nan nan nan nan nan nan nan nan nan nan nan nan nan nan nan nan nan nan nan nan nan nan nan nan nan nan nan nan nan nan nan nan nan nan
nan nan nan nan nan nan nan nan nan nan nan nan nan nan nan nan nan nan nan nan nan nan nan nan nan nan nan nan nan nan nan nan nan nan nan nan nan nan nan nan nan nan nan nan nan nan nan nan nan nan nan nan nan nan nan nan nan nan nan nan nan nan nan nan nan nan nan nan nan nan nan nan nan nan nan nan nan nan nan nan nan nan nan nan nan
Wind_Direction
346 350 323 334 337 345 351 344 337 316 321 326 330 328 314 312 313 315 310 319 314 312 317 320 318 316 316 316 318 316 314 312 310 311 310 312 315 322 322 325 324 328 334 341 343 342 343 337 332 336 331 334 341 345 346 350 351 350 351 349 352 352 348 351 356 9 12 356 349 353 354 349 356 360 1 4 5 6 7 7 7 6 6 6 7
349 339 314 325 342 339 346 330 323 314 326 327 330 322 319 315 313 307 313 317 317 320 317 317 319 321 317 316 316 316 314 313 310 309 312 311 313 310 319 324 324 321 324 332 337 338 339 341 336 330 329 334 334 341 345 344 349 350 351 349 352 354 351 345 356 351 3 347 344 341 345 348 352 355 355 358 2 358 1 2 1 360 360 360 359
336 318 318 316 332 324 320 318 316 325 330 317 327 323 319 321 313 318 320 315 318 324 324 320 320 323 323 317 313 312 313 312 309 310 312 314 315 313 316 323 327 326 325 329 332 334 336 339 342 333 321 330 334 337 338 342 341 347 349 343 345 346 343 341 337 347 349 353 341 339 344 345 349 351 353 353 354 352 355 356 355 355 354 355 356
317 315 313 316 321 316 314 313 324 327 330 313 323 324 319 321 321 324 326 321 321 322 325 328 318 320 325 324 322 317 314 313 312 312 315 315 317 319 318 322 325 329 329 327 328 330 336 336 340 339 332 332 332 331 333 337 336 337 340 339 337 339 336 336 339 338 339 344 341 341 337 339 348 344 345 344 346 347 349 348 347 349 350 350 352
312 315 315 321 320 319 321 318 325 331 330 313 324 326 325 323 324 331 328 328 325 320 321 325 327 321 324 328 330 330 325 321 320 319 316 316 320 321 322 322 324 327 330 329 326 329 332 335 335 334 336 337 331 329 330 334 335 329 331 331 332 331 329 333 337 334 334 339 339 334 335 336 336 337 339 340 340 343 342 344 344 346 347 348 349
309 308 310 317 316 327 325 320 331 334 330 323 326 326 326 325 326 330 331 330 323 323 324 322 327 334 333 332 333 335 332 330 329 326 322 319 320 322 323 323 324 324 325 327 328 327 329 331 329 330 336 340 337 333 330 334 331 331 328 325 325 323 327 328 329 333 336 337 332 336 332 337 333 331 334 337 337 338 340 343 340 341 342 345 347
320 319 319 324 315 328 331 331 327 326 322 319 314 317 323 325 327 329 328 329 326 322 323 326 326 334 343 344 341 339 339 336 332 328 324 321 322 323 324 325 324 321 322 327 328 328 329 327 326 328 334 338 337 333 330 330 329 333 331 324 318 318 322 323 324 329 332 333 331 331 332 333 331 333 329 332 335 334 336 337 340 338 339 341 343
344 342 339 344 342 343 338 331 327 320 311 310 313 317 318 319 321 318 318 328 328 325 322 328 331 334 342 346 346 341 342 341 336 331 328 326 323 325 327 327 330 332 333 336 338 338 338 337 336 334 336 336 335 331 327 328 324 327 324 318 315 317 319 318 319 324 326 328 330 328 327 328 324 321 319 321 327 327 331 332 338 335 336 336 338
354 352 350 358 360 344 327 317 310 305 306 308 311 314 314 312 311 312 315 323 321 328 327 327 333 338 339 341 342 343 347 345 336 333 333 335 332 336 339 341 343 349 355 359 358 357 354 353 353 348 346 347 347 341 338 332 325 326 323 320 320 320 320 318 319 319 320 322 324 319 320 325 325 319 320 323 328 333 324 322 328 330 330 330 332
348 352 354 353 342 330 322 309 302 302 302 306 306 304 301 303 307 313 318 322 323 325 331 334 336 338 338 341 341 342 347 338 345 352 347 339 343 344 347 353 355 357 1 7 10 10 10 7 5 8 3 359 355 352 350 345 342 335 327 323 324 322 323 324 324 322 321 321 321 317 320 325 322 320 321 322 318 312 315 321 324 322 321 328 325
339 348 351 338 328 322 315 309 301 304 303 296 294 296 296 292 297 308 313 314 321 321 328 342 343 331 339 344 347 346 343 342 356 352 355 357 350 351 355 359 1 3 5 10 15 17 17 15 13 10 8 3 359 358 355 353 350 349 345 339 334 331 328 329 328 326 325 323 317 313 319 322 319 315 318 316 311 316 320 318 319 316 320 323 326
330 339 339 328 328 329 323 315 312 311 303 301 296 292 285 285 292 303 310 311 310 312 325 341 342 330 332 345 350 348 349 360 356 354 354 357 356 356 360 1 2 6 8 11 12 12 12 9 6 1 359 1 356 355 357 356 353 351 350 347 345 346 342 334 331 327 327 324 320 319 317 318 312 309 312 310 312 313 316 315 316 318 320 322 320
313 327 329 327 330 330 325 324 322 315 315 309 295 286 288 290 294 300 311 307 299 311 326 330 338 337 333 340 351 356 358 0 355 354 354 356 359 1 357 358 358 0 1 3 4 1 356 353 352 351 351 357 354 350 346 347 349 350 349 348 347 347 346 345 340 333 325 326 325 324 320 314 310 312 310 310 309 315 312 314 314 316 318 319 319
299 316 320 323 324 325 326 328 326 321 312 306 299 296 295 301 300 296 294 296 305 312 312 326 332 336 339 338 347 356 2 355 352 352 351 352 353 352 353 352 350 348 348 351 351 350 347 344 343 343 341 341 341 342 338 337 334 336 337 336 336 342 344 345 344 341 329 323 324 325 320 311 314 312 308 307 309 314 312 315 314 316 316 320 318
289 300 311 313 316 319 322 324 326 320 312 305 301 303 303 298 297 293 295 303 306 304 308 318 329 335 341 343 341 349 351 350 346 349 347 346 346 341 342 339 335 335 338 342 346 344 339 337 338 338 332 333 330 330 329 327 326 328 332 334 335 333 332 335 335 328 322 319 321 322 316 312 314 310 306 309 313 312 313 316 317 319 318 311 307
289 287 299 303 307 312 315 317 318 317 312 304 301 302 298 294 297 293 291 290 288 289 297 313 325 329 331 335 342 347 336 339 340 342 342 338 334 325 328 330 331 331 332 333 331 329 327 327 327 327 325 326 330 329 326 320 321 326 329 331 330 328 330 338 340 332 327 326 323 320 317 315 314 311 308 308 309 308 306 308 309 311 310 312 315
291 286 291 293 296 302 307 310 310 313 314 311 304 295 290 287 278 272 278 287 292 298 306 314 313 317 322 325 339 340 322 321 331 333 331 327 313 309 312 314 319 324 325 320 316 314 313 316 316 314 316 319 323 323 324 321 319 324 326 326 324 324 334 332 330 329 330 331 331 330 327 324 322 321 316 317 313 309 305 308 314 311 313 316 314
281 282 284 284 284 289 296 300 302 306 312 319 308 286 275 268 269 266 274 283 293 297 293 296 301 306 314 321 324 323 317 311 319 324 324 319 313 306 303 305 313 316 315 311 308 308 313 323 318 313 313 313 318 320 319 318 319 321 322 322 320 327 337 325 309 312 325 328 328 328 326 323 323 324 322 320 320 313 312 317 314 311 316 317 315
274 275 275 275 275 279 285 291 294 298 307 313 307 293 281 271 261 258 262 267 276 272 275 284 289 291 299 301 308 315 296 297 306 309 314 315 315 308 308 311 318 315 305 303 303 304 305 306 317 317 313 313 317 318 318 316 317 319 317 315 320 330 335 314 312 314 311 311 314 316 316 319 318 317 319 324 321 319 317 316 309 313 315 314 312
265 262 265 269 270 272 275 281 284 289 295 299 299 293 277 267 263 260 257 259 260 260 263 269 281 276 272 275 276 279 277 275 287 304 308 316 325 316 310 315 322 315 307 305 301 299 298 297 300 309 317 316 315 317 318 319 317 314 311 312 319 333 316 305 314 315 311 311 314 315 318 317 314 311 311 313 315 317 316 313 311 312 312 311 311
261 262 262 264 266 269 268 273 276 277 283 288 286 281 278 273 263 257 255 250 249 250 259 259 262 259 262 267 272 276 279 278 283 301 306 313 324 324 312 317 313 309 311 312 308 302 296 295 295 302 310 314 315 316 317 319 320 315 314 317 322 320 307 306 311 313 308 309 310 310 311 311 312 311 310 310 311 312 313 313 312 311 310 310 310
256 255 256 255 258 261 263 263 265 265 272 278 277 271 267 268 262 258 251 249 252 258 258 260 261 257 259 266 275 281 284 296 279 295 304 312 319 328 315 313 313 311 313 312 309 305 301 297 296 302 310 311 313 316 318 316 320 312 316 322 322 319 312 304 302 301 302 303 303 304 306 308 309 310 312 311 310 310 310 308 308 307 308 310 311
254 254 251 249 249 253 254 260 258 255 264 274 276 271 263 262 259 256 256 257 261 265 269 268 267 262 263 269 274 277 279 284 299 291 305 316 322 324 327 318 320 316 315 318 317 309 301 298 298 305 308 310 311 314 316 318 313 311 320 319 321 320 311 303 303 302 302 302 302 303 304 305 306 307 308 309 308 305 303 302 302 304 305 306 307
255 255 251 247 245 246 249 253 254 253 259 266 270 270 264 259 257 256 257 261 263 266 267 271 271 274 274 272 272 274 275 278 283 291 296 312 315 319 323 328 320 308 307 311 307 303 298 293 285 285 300 308 311 312 314 314 309 315 318 323 324 320 310 309 308 307 304 302 303 304 305 303 301 302 304 302 300 298 297 297 299 301 301 301 300
251 251 249 247 246 245 246 247 249 251 255 261 265 266 264 261 258 255 257 259 261 263 265 268 274 275 276 275 275 273 274 271 265 262 268 278 283 284 289 291 289 280 281 288 282 282 281 281 280 280 281 284 287 289 294 303 310 315 320 324 325 313 312 311 311 306 303 302 302 300 298 297 297 297 293 291 289 287 288 289 290 292 293 295 294
246 246 247 248 249 249 249 248 249 251 255 256 260 262 264 262 260 258 258 258 260 262 263 266 269 271 273 274 273 273 268 266 269 271 273 276 282 291 295 296 293 295 299 298 300 295 294 291 290 290 291 293 292 295 298 301 303 305 308 309 307 310 313 315 312 306 301 297 294 293 292 289 290 289 286 286 289 291 290 288 285 285 287 289 289
243 244 246 248 251 251 253 250 249 250 252 254 257 260 261 261 260 261 262 261 262 261 263 266 266 267 269 271 272 266 265 267 269 271 272 275 279 284 287 287 289 287 290 293 293 295 295 293 293 294 296 299 302 305 307 306 303 304 305 306 309 311 313 313 310 304 301 297 295 293 292 293 290 290 293 295 293 289 287 285 284 283 283 283 287
243 244 246 247 249 251 253 258 256 249 247 249 254 259 260 260 261 262 263 265 265 264 266 267 269 271 271 267 264 266 266 267 269 271 274 276 279 281 283 283 284 287 288 289 290 292 292 292 292 293 295 296 297 298 301 303 305 306 307 308 309 311 314 318 311 303 302 298 295 295 298 298 299 299 297 296 294 289 289 292 291 288 288 288 289
239 241 245 246 246 247 253 253 251 252 250 247 244 242 240 247 253 250 245 251 263 269 269 265 265 264 265 268 271 268 268 271 275 277 278 279 281 281 280 282 283 285 288 289 290 290 289 290 290 292 293 295 295 297 298 299 301 304 307 308 307 307 307 306 307 307 307 306 305 305 304 301 300 299 301 302 300 300 301 297 294 295 295 297 300
240 237 237 239 239 241 242 248 251 252 252 252 251 245 241 241 242 252 253 250 254 258 263 263 267 267 264 260 264 273 275 279 281 279 279 277 277 278 281 283 286 285 285 285 288 288 289 289 291 293 294 295 296 296 nan 298 300 302 305 307 307 308 309 308 307 307 305 304 304 303 302 302 302 303 302 302 301 300 300 301 298 297 300 303 300
243 240 241 242 243 246 248 249 249 250 251 252 251 252 248 241 240 242 247 254 258 258 261 263 264 265 268 268 266 271 277 279 282 282 282 282 282 285 286 288 288 287 285 286 288 289 290 nan nan nan nan nan nan nan nan nan nan nan nan 304 305 307 307 307 307 305 304 303 303 303 303 302 302 301 299 298 299 299 300 302 300 299 302 302 300
246 244 243 244 245 247 250 251 251 251 250 251 254 255 254 254 247 243 245 250 257 263 264 264 265 266 269 272 272 270 275 280 284 285 285 286 287 287 288 289 290 288 287 nan nan nan nan nan nan nan nan nan nan nan nan nan nan nan nan nan nan 301 301 302 302 300 300 300 301 301 301 300 299 298 298 299 299 299 299 299 297 297 296 294 294
249 249 248 247 249 250 252 253 253 253 254 254 254 255 257 258 259 256 249 250 253 256 261 266 267 267 267 267 270 274 277 282 285 284 285 286 288 289 nan nan nan nan nan nan nan nan nan nan nan nan nan nan nan nan nan nan nan nan nan nan nan nan nan nan 297 297 299 301 300 299 299 298 297 295 295 295 294 294 295 296 297 295 292 288 285
248 249 250 250 250 250 252 254 255 254 253 254 255 257 257 258 260 260 261 259 255 254 253 256 262 265 266 270 273 272 271 270 271 275 282 nan nan nan nan nan nan nan nan nan nan nan nan nan nan nan nan nan nan nan nan nan nan nan nan nan nan nan nan nan nan 300 299 301 301 302 301 299 297 294 291 289 290 290 290 291 291 290 288 289 290
251 252 253 251 251 252 252 254 256 256 256 256 256 257 258 260 262 263 264 264 264 265 266 264 262 265 272 273 274 nan nan nan nan nan nan nan nan nan nan nan nan nan nan nan nan nan nan nan nan nan nan nan nan nan nan nan nan nan nan nan nan nan nan nan nan nan 305 303 303 304 303 301 299 296 292 291 290 290 288 287 286 286 287 286 285
251 250 248 250 250 251 252 253 255 257 257 258 258 260 261 262 262 263 263 264 266 267 267 267 268 nan nan nan nan nan nan nan nan nan nan nan nan nan nan nan nan nan nan nan nan nan nan nan nan nan nan nan nan nan nan nan nan nan nan nan nan nan nan nan nan nan nan 308 307 304 302 299 297 294 291 291 291 289 286 286 284 283 283 282 280
252 251 250 249 250 251 251 252 254 255 256 257 256 257 257 259 261 262 nan 266 268 269 270 270 nan nan nan nan nan nan nan nan nan nan nan nan nan nan nan nan nan nan nan nan nan nan nan nan nan nan nan nan nan nan nan nan nan nan nan nan nan nan nan nan nan nan nan nan 307 304 302 299 294 291 290 nan 288 287 284 283 282 280 277 277 277
249 252 254 253 253 252 251 252 253 254 255 255 255 256 257 258 260 262 264 265 269 271 273 274 274 nan nan nan nan nan nan nan nan nan nan nan nan nan nan nan nan nan nan nan nan nan nan nan nan nan nan nan nan nan nan nan nan nan nan nan nan nan nan nan nan nan nan nan nan nan nan 294 292 292 nan nan 286 285 282 280 276 273 272 276 271
250 250 255 260 257 255 254 252 252 253 253 253 255 257 259 259 258 259 262 265 265 266 266 266 268 269 271 272 nan nan nan nan nan nan nan nan nan nan nan nan nan nan nan nan nan nan nan nan nan nan nan nan nan nan nan nan nan nan nan nan nan nan nan nan nan nan nan nan nan nan nan nan nan nan nan 295 300 295 286 280 276 273 272 269 264
249 250 249 250 252 253 254 254 254 253 254 254 254 254 255 255 256 258 258 258 259 261 265 nan nan 269 269 nan nan nan nan nan nan nan nan nan nan nan nan nan nan nan nan nan nan nan nan nan nan nan nan nan nan nan nan nan nan nan nan nan nan nan nan nan nan nan nan nan nan nan nan nan nan nan nan nan nan nan nan 278 270 267 267 265 256
249 249 249 250 251 252 252 252 252 252 nan 253 253 nan nan nan nan nan nan nan nan nan 259 262 264 266 nan nan nan nan nan nan nan nan nan nan nan nan nan nan nan nan nan nan nan nan nan nan nan nan nan nan nan nan nan nan nan nan nan nan nan nan nan nan nan nan nan nan nan nan nan nan nan nan nan nan nan nan nan nan 273 267 267 264 nan
249 249 249 249 249 250 nan 251 252 252 252 253 253 254 nan nan nan nan nan nan nan nan nan nan nan nan nan nan nan nan nan nan nan nan nan nan nan nan nan nan nan nan nan nan nan nan nan nan nan nan nan nan nan nan nan nan nan nan nan nan nan nan nan nan nan nan nan nan nan nan nan nan nan nan nan nan nan nan nan nan nan nan nan nan nan
nan nan nan nan 250 250 nan nan 251 251 252 252 253 253 253 nan nan nan nan nan nan nan nan nan nan nan nan nan nan nan nan nan nan nan nan nan nan nan nan nan nan nan nan nan nan nan nan nan nan nan nan nan nan nan nan nan nan nan nan nan nan nan nan nan nan nan nan nan nan nan nan nan nan nan nan nan nan nan nan nan nan nan nan nan nan
nan 248 248 249 nan nan nan nan nan nan nan nan nan nan nan nan nan nan nan nan nan nan nan nan nan nan nan nan nan nan nan nan nan nan nan nan nan nan nan nan nan nan nan nan nan nan nan nan nan nan nan nan nan nan nan nan nan nan nan nan nan nan nan nan nan nan nan nan nan nan nan nan nan nan nan nan nan nan nan nan nan nan nan nan nan
247 247 nan nan nan nan nan nan nan nan nan nan nan nan nan nan nan nan nan nan nan nan nan nan nan nan nan nan nan nan nan nan nan nan nan nan nan nan nan nan nan nan nan nan nan nan nan nan nan nan nan nan nan nan nan nan nan nan nan nan nan nan nan nan nan nan nan nan nan nan nan nan nan nan nan nan nan nan nan nan nan nan nan nan nan
246 nan nan nan nan nan nan nan nan nan nan nan nan nan nan nan nan nan nan nan nan nan nan nan nan nan nan nan nan nan nan nan nan nan nan nan nan nan nan nan nan nan nan nan nan nan nan nan nan nan nan nan nan nan nan nan nan nan nan nan nan nan nan nan nan nan nan nan nan nan nan nan nan nan nan nan nan nan nan nan nan nan nan nan nan
nan nan nan nan nan nan nan nan nan nan nan nan nan nan nan nan nan nan nan nan nan nan nan nan nan nan nan nan nan nan nan nan nan nan nan nan nan nan nan nan nan nan nan nan nan nan nan nan nan nan nan nan nan nan nan nan nan nan nan nan nan nan nan nan nan nan nan nan nan nan nan nan nan nan nan nan nan nan nan nan nan nan nan nan nan
nan nan nan nan nan nan nan nan nan nan nan nan nan nan nan nan nan nan nan nan nan nan nan nan nan nan nan nan nan nan nan nan nan nan nan nan nan nan nan nan nan nan nan nan nan nan nan nan nan nan nan nan nan nan nan nan nan nan nan nan nan nan nan nan nan nan nan nan nan nan nan nan nan nan nan nan nan nan nan nan nan nan nan nan nan
nan nan nan nan nan nan nan nan nan nan nan nan nan nan nan nan nan nan nan nan nan nan nan nan nan nan nan nan nan nan nan nan nan nan nan nan nan nan nan nan nan nan nan nan nan nan nan nan nan nan nan nan nan nan nan nan nan nan nan nan nan nan nan nan nan nan nan nan nan nan nan nan nan nan nan nan nan nan nan nan nan nan nan nan nan
nan nan nan nan nan nan nan nan nan nan nan nan nan nan nan nan nan nan nan nan nan nan nan nan nan nan nan nan nan nan nan nan nan nan nan nan nan nan nan nan nan nan nan nan nan nan nan nan nan nan nan nan nan nan nan nan nan nan nan nan nan nan nan nan nan nan nan nan nan nan nan nan nan nan nan nan nan nan nan nan nan nan nan nan nan
nan nan nan nan nan nan nan nan nan nan nan nan nan nan nan nan nan nan nan nan nan nan nan nan nan nan nan nan nan nan nan nan nan nan nan nan nan nan nan nan nan nan nan nan nan nan nan nan nan nan nan nan nan nan nan nan nan nan nan nan nan nan nan nan nan nan nan nan nan nan nan nan nan nan nan nan nan nan nan nan nan nan nan nan nan